Flag for Norway Weather past 2 weeks in Finse, Norway

Now
32 °F

Chilly.


Feels Like: 26 °F
Forecast: 28 / 36 °F
Wind: 7 mph from Northwest

Location: Finsevatn

Current Time: May 26, 2015 at 8:59:34 AM

Latest Report: May 26, 2015 at 8:00 AM


Visibility: N/A

Pressure: 29.85 "Hg

Humidity: 83%

Dew point: 28 °F

Location of FinseLocation

Historic Weather in Finse — Graph

°F

Finse temperature yesterday

Maximum temperature yesterday: 34 °F (at 3:00 PM)
Minimum temperature yesterday: 30 °F (at 12:00 AM)
Average temperature yesterday: 32 °F

Past Weeks' High & Low Weather Summary

 TemperatureHumidityPressure
High41 °F (May 15, 1:00 PM)96% (May 13, 6:00 AM)30.14 "Hg (May 13, 6:00 AM)
Low14 °F (May 15, 6:00 AM)38% (May 15, 1:00 PM)29.35 "Hg (May 19, 10:00 AM)
Average32 °F81%29.81 "Hg
* Reported May 11 7:00 AM — May 26 7:00 AM, Finse, Weather by CustomWeather, © 2015

Note: Actual official high and low records may vary slightly from our data, if they occured in-between our weather recording intervals... More about our weather records

Advertising

Finse weather history for previous 24 hours

 ConditionsComfort  
Time TempWeatherWind HumidityBarometerVisibility
7:00 AM
Tue, May 26
32 °FChilly.5 mph84%29.84 "HgN/A
6:00 AM31 °FChilly.6 mph88%29.85 "HgN/A
4:00 AM29 °FChilly.3 mph88%29.87 "HgN/A
3:00 AM31 °FChilly.5 mph84%29.85 "HgN/A
2:00 AM31 °FChilly.5 mph87%29.84 "HgN/A
1:00 AM32 °FChilly.5 mph81%29.84 "HgN/A
12:00 AM32 °FChilly.5 mph82%29.84 "HgN/A
10:00 PM
Mon, May 25
32 °FChilly.3 mph88%29.84 "HgN/A
9:00 PM33 °FChilly.6 mph89%29.82 "HgN/A
8:00 PM33 °FChilly.6 mph84%29.80 "HgN/A
7:00 PM33 °FChilly.7 mph84%29.80 "HgN/A
6:00 PM33 °FChilly.7 mph81%29.79 "HgN/A
5:00 PM34 °FChilly.7 mph79%29.78 "HgN/A
4:00 PM34 °FChilly.6 mph80%29.79 "HgN/A
3:00 PM34 °FChilly.6 mph78%29.78 "HgN/A
2:00 PM33 °FChilly.7 mph81%29.78 "HgN/A
1:00 PM33 °FChilly.7 mph79%29.78 "HgN/A
12:00 PM33 °FChilly.8 mph78%29.77 "HgN/A
11:00 AM33 °FChilly.8 mph81%29.76 "HgN/A
10:00 AM33 °FChilly.7 mph84%29.76 "HgN/A
9:00 AM32 °FChilly.6 mph86%29.75 "HgN/A
8:00 AM32 °FChilly.6 mph87%29.75 "HgN/A
Weather by CustomWeather, © 2015

See weather overviewHow to use our weather pages